Weather History for KFHU - February, 2013

Change the Weather History Date:

Friday, February 15, 2013

  Actual Average Record
Temperature  
Mean Temperature 50 °F -  
Max Temperature 62 °F 61 °F 82 °F (2014)
Min Temperature 39 °F 39 °F 16 °F (1990)
Degree Days  
Heating Degree Days 14    
Moisture  
Dew Point 16 °F    
Average Humidity 32    
Maximum Humidity 87    
Minimum Humidity 7    
Precipitation  
Precipitation 0.00 in - - ()
Sea Level Pressure  
Sea Level Pressure 30.18 in    
Wind  
Wind Speed 4 mph (East)    
Max Wind Speed 14 mph    
Max Gust Speed 20 mph    
Visibility 10 miles    
Events      
Averages and records for this station are not official NWS values.
T = Trace of Precipitation, MM = Missing Value Source: NWS Daily Summary

Daily Weather History Graph

Daily Weather History Graph

Search for Another Location

Airport or City:

Trip Planner

Search our weather history database for the weather conditions in past years. The results will help you decide how hot, cold, wet, or windy it might be!

Date:

Astronomy

Feb. 15, 2013 Rise Set
Actual Time 7:02 AM MST 6:08 PM MST
Civil Twilight 6:37 AM MST 6:33 PM MST
Nautical Twilight 6:09 AM MST 7:02 PM MST
Astronomical Twilight 5:41 AM MST 7:30 PM MST
Moon 10:05 AM MST (2/15) 11:46 PM MST (2/15)
Length of Visible Light 11h 55m
Length of Day
11h 05m
Waxing Crescent, 31% of the Moon is Illuminated
Feb 15
Waxing Crescent
Feb 17
First Quarter
Feb 25
Full
Mar 4
Last Quarter
Mar 11
New

Hourly Weather History & Observations

Time (MST) Temp. Windchill Dew Point Humidity Pressure Visibility Wind Dir Wind Speed Gust Speed Precip Events Conditions
12:55 AM 42.8 °F - 23.0 °F 46% 30.11 in 10.0 mi Calm Calm - N/A   Mostly Cloudy
1:55 AM 44.6 °F - 41.0 °F 87% 30.11 in 10.0 mi Calm Calm - N/A   Mostly Cloudy
2:55 AM 44.6 °F - 23.0 °F 43% 30.10 in 10.0 mi Calm Calm - N/A   Mostly Cloudy
3:55 AM 41.0 °F - 24.8 °F 53% 30.09 in 10.0 mi Calm Calm - N/A   Mostly Cloudy
4:55 AM 44.6 °F 40.7 °F 23.0 °F 43% 30.09 in 10.0 mi NNE 6.9 mph - N/A   Mostly Cloudy
5:55 AM 41.0 °F 39.0 °F 23.0 °F 49% 30.15 in 10.0 mi North 3.5 mph - N/A   Mostly Cloudy
6:55 AM 39.2 °F - 21.2 °F 49% 30.20 in 10.0 mi Calm Calm - N/A   Mostly Cloudy
7:55 AM 39.2 °F - 24.8 °F 56% 30.21 in 10.0 mi Calm Calm - N/A   Mostly Cloudy
8:55 AM 46.4 °F 45.2 °F 21.2 °F 37% 30.22 in 10.0 mi NE 3.5 mph - N/A   Mostly Cloudy
9:55 AM 50.0 °F - 21.2 °F 32% 30.22 in 10.0 mi East 9.2 mph - N/A   Mostly Cloudy
10:55 AM 53.6 °F - 19.4 °F 26% 30.22 in 10.0 mi ESE 8.1 mph - N/A   Mostly Cloudy
11:55 AM 55.4 °F - 17.6 °F 23% 30.21 in 10.0 mi East 9.2 mph - N/A   Mostly Cloudy
12:55 PM 57.2 °F - 17.6 °F 21% 30.19 in 10.0 mi East 12.7 mph - N/A   Mostly Cloudy
1:55 PM 59.0 °F - 15.8 °F 19% 30.17 in 10.0 mi East 9.2 mph - N/A   Mostly Cloudy
2:55 PM 60.8 °F - 12.2 °F 15% 30.16 in 10.0 mi ENE 8.1 mph - N/A   Mostly Cloudy
3:55 PM 60.8 °F - 6.8 °F 12% 30.17 in 10.0 mi East 9.2 mph - N/A   Scattered Clouds
4:55 PM 62.6 °F - -2.2 °F 7% 30.15 in 10.0 mi ENE 13.8 mph 19.6 mph N/A   Scattered Clouds
5:55 PM 57.2 °F - -0.4 °F 10% 30.18 in 10.0 mi East 10.4 mph - N/A   Scattered Clouds
6:55 PM 51.8 °F - 1.4 °F 13% 30.20 in 10.0 mi ESE 10.4 mph - N/A   Partly Cloudy
7:55 PM 48.2 °F - 5.0 °F 17% 30.23 in 10.0 mi SE 9.2 mph - N/A   Partly Cloudy
8:55 PM 46.4 °F 42.4 °F 6.8 °F 20% 30.23 in 10.0 mi ESE 8.1 mph - N/A   Partly Cloudy
9:55 PM 44.6 °F 39.7 °F 6.8 °F 21% 30.24 in 10.0 mi SSE 9.2 mph - N/A   Partly Cloudy
10:56 PM 41.0 °F 35.2 °F 10.9 °F 29% 30.26 in 10.0 mi SE 9.2 mph - N/A   Clear
11:56 PM 43.0 °F 37.2 °F 14.0 °F 31% 30.25 in 10.0 mi South 10.4 mph - N/A   Clear